sat.trackr.live / text

‹ back to catalog

STARLINK-35022

NORAD 65409 · 2025-192F

PAYLOAD ACTIVE UNKNOWN

§ Identity

Operator
Country
US
Launch date
2025-08-31
Launch site
AFETR
Launch vehicle
Mass (kg)
RCS (m²)

Purposes: comms

External: N2YO · Heavens-Above · Gunter

§ Orbital elements

Epoch: 2026-05-24T16:11:17.964672Z

Period
94.01 min
Inclination
53.1576°
Eccentricity
0.0001097
Mean motion
15.31717786 rev/d
Perigee alt
469.9 km
Apogee alt
471.4 km
Semi-major
6,848.8 km
B*
7.5265e-4
RAAN
239.0014°
Arg perigee
84.2997°
Mean anomaly
275.8129°
Rev number
4,102

§ Raw data

STARLINK-350221 65409U 25192F   26144.67451348  .00023076  00000+0  75265-3 0  99932 65409  53.1576 239.0014 0001097  84.2997 275.8129 15.31717786 41025

JSON: /api/v1/satellites/65409 · /tle

For live sub-satellite position, see the globe view (requires WebGL).

§ Visibility from observer

Set your observer location to see the next 7 days of passes ≥ 10°. The values pass through the URL so the page stays shareable.

No JS? Fill the form by hand. The geolocation button needs JavaScript.